Terminal Aerodrome Forecast
Issued by NWS Jacksonville, FL

Home | Current Version | Previous Version | Text Only | Print | Product List | Glossary On
Versions: 1 2 3 4 5 6 7 8 9 10 11 12 13 14 15 16 17 18 19 20 21 22 23 24 25 26 27 28 29 30 31
000
FTUS42 KJAX 071120
TAFJAX
TAF
KJAX 071120Z 0712/0812 00000KT P6SM SCT150 BKN250
     FM071400 31007KT P6SM SCT035 SCT250
     FM071800 12010G15KT P6SM VCTS SCT045CB SCT150 BKN250
      TEMPO 0718/0722 VRB15G25KT 3SM TSRA BR SCT020 BKN040CB OVC100
     FM072300 17007KT P6SM VCSH SCT050 BKN150 OVC250
     FM080200 VRB03KT P6SM FEW050 SCT150 BKN250=

USA.gov is the U.S. government's official web portal to all federal, state and local government web resources and services.